Date String (YYYY-MM-DD hh:mm:ss) UTC,Instrument flags,Ambient pressure (hPa),Sample flow (lpm),Bypass flow (lpm),Sample temperature (°C),Ambient temperature (°C),ASC tube jacket temperature (°C),LED temperature (°C),Box temperature (°C),Sample RH (%),Span deviation,Mass concentration (μg/m³),Mass concentration (μg/m³),Mass concentration (μg/m³)
DateTimeUTC,F1_M11,P_M11,Q1_M11,Q2_M11,T1_M11,T2_M11,T3_M11,T4_M11,T5_M11,U1_M11,ZSPAN_M11,X2_M11,X0_M11,X1_M11
2023-03-05 05:00:00,,0815.5,4.99,0.00,22.5,22.6,00.0,31.2,24.5,14.4,-000.2,0009.10,0013.44,0008.44
2023-03-05 05:01:00,,0815.1,4.98,0.00,22.6,22.7,00.0,31.2,24.5,14.4,-000.3,0009.10,0013.37,0008.46
2023-03-05 05:02:00,,0815.1,4.98,0.00,22.6,22.3,00.0,31.2,24.5,14.3,-000.2,0009.08,0013.27,0008.46
2023-03-05 05:03:00,,0815.1,5.01,0.00,22.6,21.8,00.0,31.3,24.4,14.3,-000.2,0009.11,0013.09,0008.47
2023-03-05 05:04:00,,0815.0,5.01,0.00,22.6,21.6,00.0,31.3,24.4,14.3,-000.7,0009.09,0012.78,0008.47
2023-03-05 05:05:00,,0815.1,5.00,0.00,22.6,21.4,00.0,31.3,24.3,14.3,-000.7,0009.09,0012.74,0008.47
2023-03-05 05:06:00,,0815.2,5.01,0.00,22.6,21.2,00.0,31.3,24.3,14.3,-000.3,0009.06,0012.70,0008.46
2023-03-05 05:07:00,,0815.2,4.99,0.00,22.6,21.1,00.0,31.3,24.3,14.3,-000.2,0009.08,0013.11,0008.45
2023-03-05 05:08:00,,0815.2,5.00,0.00,22.5,21.0,00.0,31.3,24.3,14.3,-000.4,0009.10,0013.49,0008.46
2023-03-05 05:09:00,,0815.1,5.01,0.00,22.5,21.0,00.0,31.3,24.3,14.3,-000.3,0009.13,0013.51,0008.49
2023-03-05 05:10:00,,0815.1,5.01,0.00,22.5,20.9,00.0,31.3,24.3,14.3,-000.2,0009.13,0013.51,0008.51
2023-03-05 05:11:00,,0815.1,4.99,0.00,22.5,20.9,00.0,31.3,24.3,14.3,-000.4,0009.15,0013.70,0008.51
2023-03-05 05:12:00,,0815.2,4.99,0.00,22.5,20.8,00.0,31.3,24.3,14.3,-000.6,0009.17,0013.82,0008.51
2023-03-05 05:13:00,,0815.2,5.00,0.00,22.5,20.8,00.0,31.2,24.2,14.2,-000.7,0009.18,0013.86,0008.52
2023-03-05 05:14:00,,0815.2,4.99,0.00,22.5,20.8,00.0,31.2,24.2,14.2,-000.8,0009.13,0013.79,0008.49
2023-03-05 05:15:00,,0815.1,5.00,0.00,22.5,20.8,00.0,31.2,24.2,14.1,-000.4,0009.13,0013.84,0008.48
2023-03-05 05:16:00,,0815.0,5.01,0.00,22.4,20.7,00.0,31.2,24.2,14.1,-000.3,0009.10,0013.82,0008.45
2023-03-05 05:17:00,,0814.9,5.00,0.00,22.4,20.7,00.0,31.2,24.2,14.1,-000.7,0009.03,0013.78,0008.39
2023-03-05 05:18:00,,0814.9,5.01,0.00,22.4,20.7,00.0,31.2,24.2,14.1,-000.9,0008.93,0013.33,0008.30
2023-03-05 05:19:00,,0814.9,5.00,0.00,22.4,20.7,00.0,31.2,24.2,14.1,-001.0,0008.85,0012.87,0008.23
2023-03-05 05:20:00,,0814.9,5.00,0.00,22.4,20.7,00.0,31.2,24.1,14.1,-001.2,0008.80,0012.87,0008.16
2023-03-05 05:21:00,,0814.9,4.99,0.00,22.4,21.4,00.0,31.2,24.3,14.0,-001.4,0008.75,0012.83,0008.10
2023-03-05 05:22:00,,0814.9,4.99,0.00,22.5,22.5,00.0,31.2,24.5,14.0,-001.0,0008.72,0012.73,0008.06
2023-03-05 05:23:00,,0814.9,4.99,0.00,22.6,23.2,00.0,31.2,24.7,13.9,-000.6,0008.68,0012.67,0008.01
2023-03-05 05:24:00,,0814.9,4.97,0.00,22.7,22.9,00.0,31.2,24.7,13.9,-000.6,0008.66,0012.68,0007.97
2023-03-05 05:25:00,,0814.9,5.00,0.00,22.7,22.4,00.0,31.3,24.6,13.9,-000.7,0008.64,0012.68,0007.95
2023-03-05 05:26:00,,0814.9,5.00,0.00,22.7,22.1,00.0,31.3,24.5,14.0,-000.7,0008.59,0012.52,0007.93
2023-03-05 05:27:00,,0814.9,4.98,0.00,22.7,21.8,00.0,31.3,24.5,14.0,-000.5,0008.53,0012.42,0007.89
2023-03-05 05:28:00,,0814.9,5.00,0.00,22.7,21.6,00.0,31.3,24.5,14.0,-000.4,0008.55,0012.41,0007.91
2023-03-05 05:29:00,,0814.8,5.00,0.00,22.7,21.4,00.0,31.3,24.5,14.0,-000.1,0008.56,0012.37,0007.94
2023-03-05 05:30:00,,0814.9,5.00,0.00,22.7,21.3,00.0,31.3,24.4,14.0,0000.1,0008.57,0012.39,0007.95
2023-03-05 05:31:00,,0814.9,4.99,0.00,22.6,21.2,00.0,31.3,24.4,14.0,0000.3,0008.57,0012.40,0007.95
2023-03-05 05:32:00,,0814.9,5.00,0.00,22.6,21.1,00.0,31.3,24.4,14.1,0000.5,0008.60,0012.34,0007.98
2023-03-05 05:33:00,,0814.9,5.00,0.00,22.6,21.0,00.0,31.3,24.3,14.1,0000.2,0008.61,0012.28,0008.01
2023-03-05 05:34:00,,0814.9,4.99,0.00,22.6,20.9,00.0,31.3,24.3,14.2,0000.1,0008.61,0012.13,0008.05
2023-03-05 05:35:00,,0814.8,5.00,0.00,22.6,20.8,00.0,31.3,24.3,14.2,0000.3,0008.62,0012.05,0008.09
2023-03-05 05:36:00,,0814.9,5.01,0.00,22.6,20.8,00.0,31.3,24.3,14.3,0000.4,0008.66,0012.14,0008.12
2023-03-05 05:37:00,,0814.7,5.00,0.00,22.5,20.8,00.0,31.3,24.3,14.3,0000.3,0008.71,0012.22,0008.14
2023-03-05 05:38:00,,0815.0,5.00,0.00,22.5,20.7,00.0,31.3,24.2,14.4,0000.1,0008.76,0012.39,0008.19
2023-03-05 05:39:00,,0815.0,5.01,0.00,22.5,20.7,00.0,31.3,24.2,14.4,0000.1,0008.79,0012.64,0008.20
2023-03-05 05:40:00,,0814.9,5.01,0.00,22.5,20.6,00.0,31.3,24.2,14.4,0000.0,0008.83,0013.34,0008.24
2023-03-05 05:41:00,,0815.0,5.01,0.00,22.4,20.7,00.0,31.2,24.2,14.4,-000.1,0008.86,0013.53,0008.28
2023-03-05 05:42:00,,0814.9,5.00,0.00,22.5,21.5,00.0,31.2,24.3,14.4,-000.3,0008.91,0013.64,0008.33
2023-03-05 05:43:00,,0814.9,4.99,0.00,22.6,22.6,00.0,31.2,24.6,14.3,-000.3,0008.90,0013.60,0008.34
2023-03-05 05:44:00,,0814.9,4.97,0.00,22.7,23.0,00.0,31.3,24.7,14.2,-000.2,0008.92,0013.78,0008.35
2023-03-05 05:45:00,,0814.9,4.98,0.00,22.7,22.6,00.0,31.3,24.6,14.1,-000.3,0008.94,0013.87,0008.36
2023-03-05 05:46:00,,0814.9,5.01,0.00,22.7,22.1,00.0,31.3,24.5,14.1,-000.4,0008.95,0013.96,0008.35
2023-03-05 05:47:00,,0814.9,4.98,0.00,22.7,21.8,00.0,31.3,24.5,14.1,-000.5,0008.94,0013.93,0008.35
2023-03-05 05:48:00,,0815.0,5.00,0.00,22.7,21.5,00.0,31.3,24.4,14.1,-000.5,0008.95,0013.95,0008.35
2023-03-05 05:49:00,,0814.6,5.00,0.00,22.7,21.3,00.0,31.3,24.4,14.1,-000.5,0009.00,0014.07,0008.38
2023-03-05 05:50:00,,0814.6,5.00,0.00,22.6,21.2,00.0,31.3,24.4,14.1,-000.8,0009.02,0013.97,0008.41
2023-03-05 05:51:00,,0814.8,5.00,0.00,22.6,21.1,00.0,31.3,24.4,14.1,-000.8,0009.09,0013.45,0008.46
2023-03-05 05:52:00,,0814.9,5.01,0.00,22.6,21.0,00.0,31.3,24.4,14.1,-000.4,0009.13,0013.26,0008.49
2023-03-05 05:53:00,,0814.8,5.00,0.00,22.6,20.9,00.0,31.3,24.3,14.1,-000.4,0009.22,0013.40,0008.54
2023-03-05 05:54:00,,0814.8,5.00,0.00,22.6,20.8,00.0,31.3,24.3,14.1,-000.3,0009.29,0013.59,0008.58
2023-03-05 05:55:00,,0815.0,4.99,0.00,22.5,20.7,00.0,31.3,24.2,14.1,-000.1,0009.35,0013.81,0008.64
2023-03-05 05:56:00,,0814.9,5.00,0.00,22.5,20.7,00.0,31.3,24.2,14.1,-000.2,0009.39,0013.92,0008.65
2023-03-05 05:57:00,,0815.0,5.01,0.00,22.5,20.7,00.0,31.3,24.2,14.1,-000.4,0009.43,0014.13,0008.66
2023-03-05 05:58:00,,0814.8,5.00,0.00,22.5,20.6,00.0,31.3,24.2,14.2,-000.3,0009.47,0014.53,0008.68
2023-03-05 05:59:00,,0815.0,5.01,0.00,22.4,20.6,00.0,31.3,24.2,14.2,-000.3,0009.50,0014.63,0008.70
